DAMPE

导读

DAMPE“悟空号”是中国于2015年12月17日发射的首颗暗物质粒子探测卫星,运行于500公里太阳同步轨道,是中科院空间科学先导专项首批科学实验卫星之一。 它是目前全球观测能段范围最宽、能量分辨率最优的暗物质探测卫星,核心目标是通过探测高能宇宙线与伽马射线,间接搜寻暗物质粒子,同时探究宇宙射线起源与伽马射线天体物理,推动人类对宇宙暗物质的认知突破。

基本信息
目录编号:
41173
目录名称:
DAMPE
国际标识:
2015-078A
轨道中心:
EARTH
卫星名称:
DAMPE
卫星全名:
--
卫星状态:
在轨 (已飞行3835 天)
发射日期:
2015-12-17 UTC
国别 :
中国 (CN)
星等 :
--
轨道信息
数据来源 国际轨道数据 AOE轨道数据
星历时间 2026-06-17T23:01:25+0800
7小时前
查看轨道信息
2026-06-17T07:00:00+0800
23小时前
查看轨道信息
半长轴 6851.604km 6851.538km
偏心率 0.0013801 0.0013732
轨道倾角 97.455° 97.457°
近地点辐角 75.519° 78.003°
升交点赤经 174.095° 173.427°
平近点角 284.759° 205.367°
近地点 464.011km 463.992km
远地点 482.923km 482.81km
周期 94.069分钟 94.068分钟
每日圈数 15.307857 15.30808
详细信息
使用方式:
暂无
2D轨道图
3D轨道图
轨道高度分析图
轨道倾角分析图
轨道综合分析图
查看轨道综合分析图